Location: Nairn
(57.5833°N, 3.8667°W)
Time: 22:17:39
(UTC+00:00)

Altair - Pass Details

Date: 12 October 2022
Orbit: 1501 x 1682 km, 47.2° (Epoch: 05 December)

Event Time Altitude Azimuth Distance (km) Brightness Sun altitude
Exits shadow 02:58:09 27° 172° (S) 2,698 8.5 -29.4°
Maximum altitude 03:00:40 30° 147° (SSE) 2,563 8.5 -29.1°
Drops below altitude 10° 03:08:48 10° 92° (E) 3,886 10.2 -28.2°
Sets 03:12:27 0° 82° (E) 4,897 11.1 -27.8°
